TimePDT,TemperatureF,Dew PointF,Humidity,Sea Level PressureIn,VisibilityMPH,Wind Direction,Wind SpeedMPH,Gust SpeedMPH,PrecipitationIn,Events,Conditions,WindDirDegrees,DateUTC
12:50 AM,44.1,33.8,67,29.79,15.0,WNW,8.1,-,N/A,,Overcast,300,2012-10-22 07:50:00
1:50 AM,43.2,35.2,74,29.79,15.0,WSW,5.8,-,0.00,Rain,Light Rain,250,2012-10-22 08:50:00
2:50 AM,43.2,37.9,82,29.77,15.0,WNW,10.4,-,N/A,Rain,Light Rain,300,2012-10-22 09:50:00
3:50 AM,43.3,37.0,78,29.76,15.0,NW,15.0,19.6,N/A,,Overcast,310,2012-10-22 10:50:00
4:50 AM,42.6,35.2,75,29.71,15.0,WNW,11.5,-,N/A,,Overcast,300,2012-10-22 11:50:00
5:50 AM,42.6,34.5,73,29.70,15.0,NW,11.5,-,N/A,,Overcast,320,2012-10-22 12:50:00
6:50 AM,41.9,34.3,75,29.69,15.0,NW,8.1,-,N/A,,Overcast,320,2012-10-22 13:50:00
7:50 AM,42.3,34.5,74,29.68,15.0,WSW,5.8,-,N/A,,Overcast,250,2012-10-22 14:50:00
8:50 AM,43.3,35.1,73,29.65,15.0,West,8.1,-,N/A,,Overcast,270,2012-10-22 15:50:00
9:50 AM,45.0,34.2,66,29.64,15.0,West,6.9,-,N/A,,Overcast,280,2012-10-22 16:50:00
10:50 AM,46.0,34.2,63,29.61,15.0,NW,8.1,-,N/A,Rain,Light Rain,320,2012-10-22 17:50:00
11:50 AM,46.0,36.1,68,29.59,15.0,West,4.6,-,N/A,Rain,Light Rain,270,2012-10-22 18:50:00
12:50 PM,43.5,38.8,84,29.56,10.0,WNW,6.9,-,N/A,Rain,Light Rain,290,2012-10-22 19:50:00
1:50 PM,42.3,39.0,88,29.55,10.0,WSW,10.4,-,N/A,Rain,Light Rain,250,2012-10-22 20:50:00
2:50 PM,40.5,38.7,93,29.55,10.0,WSW,12.7,-,N/A,Rain,Light Rain,240,2012-10-22 21:50:00
3:50 PM,41.7,39.0,90,29.56,10.0,WSW,10.4,-,N/A,Rain,Light Rain,250,2012-10-22 22:50:00
4:50 PM,42.3,40.1,92,29.62,15.0,West,6.9,-,N/A,,Overcast,260,2012-10-22 23:50:00
5:50 PM,39.9,38.7,95,29.63,15.0,WNW,6.9,-,N/A,,Mostly Cloudy,290,2012-10-23 00:50:00
6:50 PM,40.1,38.3,93,29.64,15.0,SSW,5.8,-,N/A,,Mostly Cloudy,200,2012-10-23 01:50:00
10:50 PM,36.1,35.2,97,29.68,15.0,NE,4.6,-,N/A,,Partly Cloudy,50,2012-10-23 05:50:00
11:50 PM,32.0,31.6,99,29.68,15.0,WNW,2.3,-,N/A,,Partly Cloudy,300,2012-10-23 06:50:00